| time (UTC) | temp F | wind direction | speed MPH | gust MPH | rain 1hr in | rain 24hr in | rain mn in | humidity % | barometer mb |
| 20260502194506 | 65 | 189 | 5.0 | 7.0 | 0.00 | 0.00 | 0.00 | 74 | 1014.9 |
| 20260502194007 | 65 | 199 | 5.0 | 8.0 | 0.00 | 0.00 | 0.00 | 76 | 1014.9 |
| 20260502193507 | 65 | 162 | 6.0 | 7.0 | 0.00 | 0.00 | 0.00 | 76 | 1015.0 |
| 20260502193007 | 64 | 180 | 6.0 | 7.0 | 0.00 | 0.00 | 0.00 | 80 | 1015.2 |
| 20260502192506 | 64 | 180 | 7.0 | 8.0 | 0.00 | 0.00 | 0.00 | 81 | 1015.2 |
| 20260502192008 | 64 | 126 | 6.0 | 8.0 | 0.00 | 0.00 | 0.00 | 82 | 1015.3 |
| 20260502191507 | 63 | 81 | 6.0 | 7.0 | 0.00 | 0.00 | 0.00 | 81 | 1015.6 |
| 20260502191007 | 63 | 198 | 6.0 | 7.0 | 0.00 | 0.00 | 0.00 | 83 | 1015.6 |
| 20260502190506 | 63 | 189 | 6.0 | 7.0 | 0.00 | 0.00 | 0.00 | 83 | 1015.6 |
| 20260502190007 | 63 | 253 | 3.0 | 6.0 | 0.00 | 0.00 | 0.00 | 85 | 1015.6 |
| 20260502185507 | 62 | 45 | 2.0 | 5.0 | 0.00 | 0.00 | 0.00 | 87 | 1015.6 |
| 20260502185007 | 61 | 171 | 5.0 | 5.0 | 0.00 | 0.00 | 0.00 | 88 | 1015.6 |
| 20260502184507 | 61 | 127 | 5.0 | 7.0 | 0.00 | 0.00 | 0.00 | 90 | 1015.6 |
| 20260502184007 | 61 | 126 | 5.0 | 6.0 | 0.00 | 0.00 | 0.00 | 91 | 1015.6 |
| 20260502183506 | 60 | 135 | 3.0 | 6.0 | 0.00 | 0.00 | 0.00 | 92 | 1015.6 |
| 20260502183007 | 59 | 72 | 2.0 | 5.0 | 0.00 | 0.00 | 0.00 | 93 | 1015.6 |
| 20260502182507 | 59 | 136 | 3.0 | 5.0 | 0.00 | 0.00 | 0.00 | 93 | 1015.6 |
| 20260502182008 | 59 | 270 | 0.0 | 5.0 | 0.00 | 0.00 | 0.00 | 93 | 1015.9 |
| 20260502181507 | 58 | 270 | 1.0 | 5.0 | 0.00 | 0.00 | 0.00 | 93 | 1015.9 |
| 20260502181008 | 58 | 204 | 3.0 | 4.0 | 0.00 | 0.00 | 0.00 | 93 | 1015.9 |
| 20260502180507 | 58 | 279 | 4.0 | 6.0 | 0.00 | 0.00 | 0.00 | 93 | 1015.9 |
| 20260502170506 | 55 | 0 | 2.0 | 5.0 | 0.00 | 0.00 | 0.00 | 95 | 1016.3 |
| 20260502164006 | 55 | 227 | 4.0 | 5.0 | 0.00 | 0.00 | 0.00 | 95 | 1016.3 |
| 20260502163507 | 55 | 181 | 4.0 | 5.0 | 0.00 | 0.00 | 0.00 | 95 | 1016.3 |
| 20260502163007 | 54 | 180 | 2.0 | 5.0 | 0.00 | 0.00 | 0.00 | 95 | 1016.3 |
| 20260502162507 | 54 | 298 | 5.0 | 6.0 | 0.00 | 0.00 | 0.00 | 96 | 1016.3 |
| 20260502162007 | 54 | 225 | 2.0 | 5.0 | 0.00 | 0.00 | 0.00 | 96 | 1016.3 |
| 20260502161507 | 54 | 261 | 3.0 | 5.0 | 0.00 | 0.00 | 0.00 | 96 | 1016.3 |
| 20260502161007 | 54 | 315 | 2.0 | 8.0 | 0.00 | 0.00 | 0.00 | 96 | 1016.3 |
| 20260502160507 | 54 | 306 | 2.0 | 5.0 | 0.00 | 0.00 | 0.00 | 96 | 1016.3 |
| 20260502152007 | 53 | 288 | 1.0 | 3.0 | 0.00 | 0.00 | 0.00 | 96 | 1016.5 |
| 20260502151507 | 53 | 243 | 1.0 | 2.0 | 0.00 | 0.00 | 0.00 | 96 | 1016.6 |
| 20260502151007 | 53 | 0 | 0.0 | 1.0 | 0.00 | 0.00 | 0.00 | 96 | 1016.6 |
| 20260502150507 | 53 | 45 | 2.0 | 4.0 | 0.00 | 0.00 | 0.00 | 96 | 1016.6 |
| 20260502130507 | 51 | 90 | 3.0 | 6.0 | 0.00 | 0.00 | 0.00 | 97 | 1016.3 |
| 20260502123507 | 51 | 315 | 0.0 | 1.0 | 0.00 | 0.00 | 0.00 | 97 | 1016.3 |
| 20260502123007 | 51 | 0 | 5.0 | 5.0 | 0.00 | 0.00 | 0.00 | 97 | 1016.3 |
| 20260502122008 | 51 | 318 | 5.0 | 5.0 | 0.00 | 0.00 | 0.00 | 97 | 1016.1 |
| 20260502121507 | 51 | 340 | 2.0 | 3.0 | 0.00 | 0.00 | 0.00 | 97 | 1016.3 |
| 20260502121006 | 51 | 250 | 1.0 | 1.0 | 0.00 | 0.00 | 0.00 | 97 | 1016.0 |
| 20260502115007 | 51 | 225 | 1.0 | 5.0 | 0.00 | 0.00 | 0.00 | 97 | 1016.3 |
| 20260502113508 | 51 | 315 | 5.0 | 5.0 | 0.00 | 0.00 | 0.00 | 97 | 1016.3 |
| 20260502113006 | 51 | 90 | 1.0 | 1.0 | 0.00 | 0.00 | 0.00 | 97 | 1016.3 |
| 20260502104507 | 51 | 90 | 0.0 | 4.0 | 0.00 | 0.00 | 0.00 | 97 | 1016.3 |
| 20260502070507 | 55 | 0 | 0.0 | 0.0 | 0.00 | 0.00 | 0.00 | 93 | 1016.9 |
| 20260502070007 | 55 | 332 | 1.0 | 2.0 | 0.00 | 0.00 | 0.00 | 93 | 1016.9 |
| 20260502065506 | 55 | 315 | 0.0 | 0.0 | 0.00 | 0.00 | 0.00 | 93 | 1016.9 |
| 20260502065007 | 55 | 315 | 1.0 | 1.0 | 0.00 | 0.00 | 0.00 | 93 | 1016.9 |
| 20260502064507 | 55 | 270 | 0.0 | 1.0 | 0.00 | 0.00 | 0.00 | 93 | 1017.1 |
| 20260502064007 | 55 | 348 | 1.0 | 1.0 | 0.00 | 0.00 | 0.00 | 93 | 1016.9 |
| 20260502063506 | 55 | 0 | 0.0 | 0.0 | 0.00 | 0.00 | 0.00 | 93 | 1016.9 |
| 20260502063007 | 55 | 315 | 0.0 | 0.0 | 0.00 | 0.00 | 0.00 | 93 | 1016.9 |
| 20260502054506 | 57 | 225 | 0.0 | 0.0 | 0.00 | 0.00 | 0.00 | 92 | 1016.6 |
| 20260502054007 | 57 | 225 | 1.0 | 3.0 | 0.00 | 0.00 | 0.00 | 92 | 1016.6 |
| 20260502053507 | 57 | 225 | 0.0 | 1.0 | 0.00 | 0.00 | 0.00 | 92 | 1016.6 |
| 20260502053007 | 57 | 279 | 3.0 | 5.0 | 0.00 | 0.00 | 0.00 | 92 | 1016.6 |
| 20260502052507 | 58 | 244 | 4.0 | 6.0 | 0.00 | 0.00 | 0.00 | 92 | 1016.6 |
| 20260502052007 | 58 | 207 | 3.0 | 7.0 | 0.00 | 0.00 | 0.00 | 91 | 1016.6 |
| 20260502051507 | 58 | 365 | 0.0 | 0.0 | 0.00 | 0.00 | 0.00 | 91 | 1016.3 |
| 20260502051007 | 58 | 235 | 2.0 | 5.0 | 0.00 | 0.00 | 0.00 | 91 | 1016.3 |
| 20260502050507 | 59 | 288 | 1.0 | 2.0 | 0.00 | 0.00 | 0.00 | 92 | 1016.3 |
| 20260502050007 | 59 | 297 | 3.0 | 5.0 | 0.00 | 0.00 | 0.00 | 91 | 1016.3 |
| 20260502045507 | 59 | 289 | 2.0 | 5.0 | 0.00 | 0.00 | 0.00 | 90 | 1016.3 |
| 20260502045006 | 60 | 270 | 1.0 | 4.0 | 0.00 | 0.00 | 0.00 | 90 | 1016.3 |
| 20260502044507 | 60 | 145 | 1.0 | 2.0 | 0.00 | 0.00 | 0.00 | 90 | 1016.3 |
| 20260502044007 | 60 | 0 | 0.0 | 1.0 | 0.00 | 0.00 | 0.00 | 90 | 1016.3 |
| 20260502043508 | 60 | 90 | 0.0 | 1.0 | 0.00 | 0.00 | 0.00 | 90 | 1016.3 |
| 20260502043006 | 61 | 0 | 0.0 | 1.0 | 0.00 | 0.00 | 0.00 | 89 | 1016.3 |
| 20260502042507 | 61 | 0 | 0.0 | 0.0 | 0.00 | 0.00 | 0.00 | 86 | 1016.3 |
| 20260502042007 | 61 | 306 | 2.0 | 5.0 | 0.00 | 0.00 | 0.00 | 85 | 1015.9 |
| 20260502041507 | 62 | 315 | 0.0 | 1.0 | 0.00 | 0.00 | 0.00 | 84 | 1015.9 |
| 20260502041007 | 62 | 248 | 2.0 | 5.0 | 0.00 | 0.00 | 0.00 | 83 | 1015.8 |
| 20260502040507 | 63 | 225 | 2.0 | 5.0 | 0.00 | 0.00 | 0.00 | 83 | 1015.6 |
| 20260502040007 | 63 | 225 | 1.0 | 4.0 | 0.00 | 0.00 | 0.00 | 81 | 1015.6 |
| 20260502035508 | 63 | 225 | 0.0 | 4.0 | 0.00 | 0.00 | 0.00 | 81 | 1015.4 |
| 20260502035007 | 63 | 270 | 1.0 | 2.0 | 0.00 | 0.00 | 0.00 | 80 | 1015.2 |
| 20260502034507 | 64 | 0 | 1.0 | 2.0 | 0.00 | 0.00 | 0.00 | 79 | 1015.2 |
| 20260502034007 | 64 | 208 | 3.0 | 5.0 | 0.00 | 0.00 | 0.00 | 79 | 1015.2 |
| 20260502033507 | 64 | 308 | 3.0 | 6.0 | 0.00 | 0.00 | 0.00 | 77 | 1014.9 |
| 20260502033007 | 65 | 262 | 2.0 | 5.0 | 0.00 | 0.00 | 0.00 | 77 | 1014.9 |
| 20260502032507 | 65 | 214 | 5.0 | 7.0 | 0.00 | 0.00 | 0.00 | 76 | 1014.9 |
| 20260502032007 | 65 | 315 | 2.0 | 3.0 | 0.00 | 0.00 | 0.00 | 75 | 1014.9 |
| 20260502031007 | 67 | 225 | 2.0 | 2.0 | 0.00 | 0.00 | 0.00 | 74 | 1014.6 |
| 20260502030507 | 67 | 225 | 1.0 | 2.0 | 0.00 | 0.00 | 0.00 | 74 | 1014.6 |
| 20260502030007 | 67 | 297 | 1.0 | 5.0 | 0.00 | 0.00 | 0.00 | 72 | 1014.6 |
| 20260502025506 | 67 | 293 | 2.0 | 5.0 | 0.00 | 0.00 | 0.00 | 70 | 1014.4 |
| 20260502025007 | 68 | 135 | 2.0 | 4.0 | 0.00 | 0.00 | 0.00 | 69 | 1014.2 |
| 20260502024507 | 68 | 117 | 3.0 | 6.0 | 0.00 | 0.00 | 0.00 | 68 | 1014.2 |
| 20260502024007 | 69 | 198 | 3.0 | 6.0 | 0.00 | 0.00 | 0.00 | 67 | 1014.2 |
| 20260502023507 | 69 | 135 | 1.0 | 4.0 | 0.00 | 0.00 | 0.00 | 65 | 1014.2 |
| 20260502023006 | 69 | 180 | 3.0 | 6.0 | 0.00 | 0.00 | 0.00 | 65 | 1014.2 |
| 20260502022507 | 70 | 189 | 3.0 | 5.0 | 0.00 | 0.00 | 0.00 | 64 | 1013.9 |
| 20260502022007 | 70 | 304 | 3.0 | 6.0 | 0.00 | 0.00 | 0.00 | 62 | 1013.9 |
| 20260502021507 | 70 | 243 | 1.0 | 3.0 | 0.00 | 0.00 | 0.00 | 61 | 1013.9 |
| 20260502021007 | 71 | 117 | 4.0 | 7.0 | 0.00 | 0.00 | 0.00 | 61 | 1013.9 |
| 20260502020506 | 71 | 135 | 3.0 | 5.0 | 0.00 | 0.00 | 0.00 | 61 | 1013.9 |
| 20260502020007 | 71 | 317 | 4.0 | 6.0 | 0.00 | 0.00 | 0.00 | 61 | 1013.9 |
| 20260502015507 | 72 | 203 | 5.0 | 6.0 | 0.00 | 0.00 | 0.00 | 59 | 1013.9 |
| 20260502015007 | 72 | 234 | 2.0 | 5.0 | 0.00 | 0.00 | 0.00 | 58 | 1013.9 |
| 20260502014507 | 72 | 0 | 1.0 | 5.0 | 0.00 | 0.00 | 0.00 | 58 | 1013.9 |
| 20260502014007 | 73 | 226 | 5.0 | 6.0 | 0.00 | 0.00 | 0.00 | 58 | 1013.9 |
| 20260502013507 | 73 | 288 | 2.0 | 5.0 | 0.00 | 0.00 | 0.00 | 57 | 1013.7 |
| 20260502013007 | 74 | 297 | 2.0 | 5.0 | 0.00 | 0.00 | 0.00 | 57 | 1013.6 |
| 20260502012507 | 74 | 108 | 3.0 | 5.0 | 0.00 | 0.00 | 0.00 | 55 | 1013.6 |
| 20260502012007 | 74 | 18 | 3.0 | 5.0 | 0.00 | 0.00 | 0.00 | 54 | 1013.6 |
| 20260502011506 | 75 | 172 | 3.0 | 4.0 | 0.00 | 0.00 | 0.00 | 54 | 1013.6 |
| 20260502011007 | 75 | 248 | 2.0 | 4.0 | 0.00 | 0.00 | 0.00 | 55 | 1013.6 |
| 20260502010507 | 75 | 252 | 4.0 | 6.0 | 0.00 | 0.00 | 0.00 | 53 | 1013.6 |
| 20260502010007 | 76 | 261 | 4.0 | 5.0 | 0.00 | 0.00 | 0.00 | 52 | 1013.6 |
| 20260502005506 | 77 | 252 | 4.0 | 5.0 | 0.00 | 0.00 | 0.00 | 51 | 1013.6 |
| 20260502005008 | 78 | 36 | 3.0 | 5.0 | 0.00 | 0.00 | 0.00 | 50 | 1013.6 |
| 20260502004507 | 78 | 225 | 2.0 | 5.0 | 0.00 | 0.00 | 0.00 | 49 | 1013.6 |
| 20260502004006 | 79 | 315 | 1.0 | 4.0 | 0.00 | 0.00 | 0.00 | 49 | 1013.6 |
| 20260502003507 | 79 | 207 | 4.0 | 5.0 | 0.00 | 0.00 | 0.00 | 47 | 1013.6 |
| 20260502003007 | 79 | 289 | 5.0 | 6.0 | 0.00 | 0.00 | 0.00 | 47 | 1013.6 |
| 20260502002507 | 79 | 180 | 6.0 | 7.0 | 0.00 | 0.00 | 0.00 | 46 | 1013.6 |
| 20260502002007 | 80 | 297 | 3.0 | 6.0 | 0.00 | 0.00 | 0.00 | 45 | 1013.6 |
| 20260502001506 | 80 | 270 | 0.0 | 2.0 | 0.00 | 0.00 | 0.00 | 44 | 1013.6 |
| 20260502001007 | 80 | 279 | 3.0 | 6.0 | 0.00 | 0.00 | 0.00 | 43 | 1013.6 |
| 20260502000507 | 80 | 272 | 5.0 | 6.0 | 0.00 | 0.00 | 0.00 | 43 | 1013.6 |
| 20260502000007 | 80 | 135 | 3.0 | 5.0 | 0.00 | 0.00 | 0.00 | 43 | 1013.6 |
| 20260501235507 | 79 | 145 | 3.0 | 5.0 | 0.00 | 0.00 | 0.00 | 43 | 1013.6 |
| 20260501235007 | 79 | 27 | 2.0 | 7.0 | 0.00 | 0.00 | 0.00 | 43 | 1013.6 |
| 20260501234507 | 79 | 117 | 6.0 | 8.0 | 0.00 | 0.00 | 0.00 | 43 | 1013.6 |
| 20260501234007 | 80 | 117 | 5.0 | 7.0 | 0.00 | 0.00 | 0.00 | 43 | 1013.6 |
| 20260501233506 | 80 | 153 | 4.0 | 5.0 | 0.00 | 0.00 | 0.00 | 43 | 1013.6 |
| 20260501233007 | 80 | 297 | 1.0 | 4.0 | 0.00 | 0.00 | 0.00 | 45 | 1013.7 |
| 20260501232507 | 80 | 243 | 3.0 | 5.0 | 0.00 | 0.00 | 0.00 | 45 | 1013.9 |
| 20260501232007 | 79 | 271 | 5.0 | 7.0 | 0.00 | 0.00 | 0.00 | 46 | 1013.9 |
| 20260501231506 | 79 | 207 | 3.0 | 5.0 | 0.00 | 0.00 | 0.00 | 47 | 1013.9 |
| 20260501231008 | 79 | 252 | 2.0 | 4.0 | 0.00 | 0.00 | 0.00 | 46 | 1013.9 |
| 20260501230506 | 79 | 63 | 3.0 | 5.0 | 0.00 | 0.00 | 0.00 | 47 | 1013.9 |
| 20260501230008 | 79 | 315 | 2.0 | 8.0 | 0.00 | 0.00 | 0.00 | 47 | 1014.0 |
| 20260501225506 | 79 | 315 | 0.0 | 1.0 | 0.00 | 0.00 | 0.00 | 47 | 1014.2 |
| 20260501225007 | 79 | 315 | 1.0 | 3.0 | 0.00 | 0.00 | 0.00 | 47 | 1014.2 |
| 20260501224507 | 79 | 45 | 2.0 | 3.0 | 0.00 | 0.00 | 0.00 | 46 | 1014.2 |
| 20260501224007 | 79 | 315 | 3.0 | 5.0 | 0.00 | 0.00 | 0.00 | 46 | 1014.2 |
| 20260501223506 | 79 | 225 | 2.0 | 5.0 | 0.00 | 0.00 | 0.00 | 47 | 1014.3 |
| 20260501223008 | 79 | 270 | 0.0 | 2.0 | 0.00 | 0.00 | 0.00 | 46 | 1014.6 |
| 20260501222507 | 79 | 108 | 1.0 | 3.0 | 0.00 | 0.00 | 0.00 | 47 | 1014.6 |
| 20260501222006 | 78 | 117 | 2.0 | 3.0 | 0.00 | 0.00 | 0.00 | 49 | 1014.6 |
| 20260501221507 | 78 | 288 | 3.0 | 5.0 | 0.00 | 0.00 | 0.00 | 48 | 1014.6 |
| 20260501221007 | 78 | 216 | 4.0 | 6.0 | 0.00 | 0.00 | 0.00 | 49 | 1014.6 |
| 20260501220507 | 78 | 180 | 5.0 | 8.0 | 0.00 | 0.00 | 0.00 | 48 | 1014.8 |
| 20260501220007 | 78 | 281 | 5.0 | 6.0 | 0.00 | 0.00 | 0.00 | 49 | 1014.9 |
| 20260501215507 | 77 | 81 | 4.0 | 7.0 | 0.00 | 0.00 | 0.00 | 49 | 1014.9 |
| 20260501215007 | 77 | 108 | 7.0 | 8.0 | 0.00 | 0.00 | 0.00 | 48 | 1014.9 |
| 20260501214507 | 77 | 234 | 5.0 | 8.0 | 0.00 | 0.00 | 0.00 | 48 | 1014.9 |
| 20260501214007 | 76 | 171 | 4.0 | 8.0 | 0.00 | 0.00 | 0.00 | 49 | 1015.0 |
| 20260501213507 | 77 | 126 | 6.0 | 8.0 | 0.00 | 0.00 | 0.00 | 48 | 1015.2 |
| 20260501213007 | 77 | 180 | 1.0 | 3.0 | 0.00 | 0.00 | 0.00 | 49 | 1015.2 |
| 20260501212506 | 77 | 180 | 1.0 | 2.0 | 0.00 | 0.00 | 0.00 | 49 | 1015.2 |
| 20260501212007 | 77 | 162 | 2.0 | 7.0 | 0.00 | 0.00 | 0.00 | 48 | 1015.2 |
| 20260501211507 | 77 | 162 | 3.0 | 5.0 | 0.00 | 0.00 | 0.00 | 50 | 1015.4 |
| 20260501211007 | 76 | 153 | 3.0 | 5.0 | 0.00 | 0.00 | 0.00 | 50 | 1015.5 |
| 20260501210507 | 76 | 180 | 3.0 | 7.0 | 0.00 | 0.00 | 0.00 | 49 | 1015.6 |
| 20260501210007 | 75 | 171 | 6.0 | 8.0 | 0.00 | 0.00 | 0.00 | 50 | 1015.6 |
| 20260501205507 | 75 | 180 | 6.0 | 8.0 | 0.00 | 0.00 | 0.00 | 50 | 1015.6 |
| 20260501205006 | 75 | 90 | 5.0 | 8.0 | 0.00 | 0.00 | 0.00 | 50 | 1015.6 |
| 20260501204507 | 75 | 216 | 4.0 | 5.0 | 0.00 | 0.00 | 0.00 | 51 | 1015.6 |
| 20260501204007 | 75 | 171 | 6.0 | 7.0 | 0.00 | 0.00 | 0.00 | 52 | 1015.8 |
| 20260501203507 | 74 | 216 | 5.0 | 7.0 | 0.00 | 0.00 | 0.00 | 53 | 1015.9 |
| 20260501203007 | 73 | 225 | 2.0 | 5.0 | 0.00 | 0.00 | 0.00 | 53 | 1015.9 |
| 20260501202507 | 73 | 162 | 6.0 | 10.0 | 0.00 | 0.00 | 0.00 | 53 | 1015.9 |
| 20260501202007 | 73 | 198 | 6.0 | 8.0 | 0.00 | 0.00 | 0.00 | 54 | 1015.9 |
| 20260501201507 | 73 | 162 | 7.0 | 8.0 | 0.00 | 0.00 | 0.00 | 54 | 1015.9 |
| 20260501201007 | 74 | 117 | 7.0 | 11.0 | 0.00 | 0.00 | 0.00 | 54 | 1015.9 |
| 20260501200507 | 73 | 190 | 5.0 | 5.0 | 0.00 | 0.00 | 0.00 | 56 | 1015.9 |
| 20260501200007 | 73 | 162 | 3.0 | 7.0 | 0.00 | 0.00 | 0.00 | 55 | 1015.9 |
| 20260501195507 | 73 | 198 | 4.0 | 7.0 | 0.00 | 0.00 | 0.00 | 54 | 1016.0 |
| 20260501195007 | 73 | 126 | 5.0 | 6.0 | 0.00 | 0.00 | 0.00 | 56 | 1016.3 |